Regional Weather Roundup
Issued by NWS

Home | Current Version | Previous Version | Text Only | Print | Product List | Glossary Off
Versions: 1 2 3 4 5 6 7 8 9 10 11 12 13 14 15 16 17 18 19 20 21 22 23 24 25 26 27 28 29 30 31 32 33 34 35 36 37 38 39 40 41 42 43 44 45 46 47 48 49 50

673
ASUS43 KFSD 230702
RWRSD

WEATHER ROUNDUP FOR SOUTH DAKOTA
NATIONAL WEATHER SERVICE SIOUX FALLS SD
100 AM CST THU NOV 23 2017

NOTE: "FAIR" INDICATES FEW OR NO CLOUDS BELOW 12,000 FEET WITH NO
SIGNIFICANT WEATHER AND/OR OBSTRUCTIONS TO VISIBILITY.


SDZ001>005-009-010-012>017-230800-
NORTHWEST AND NORTH CENTRAL SOUTH DAKOTA

CITY           SKY/WX    TMP DP  RH WIND       PRES   REMARKS
BUFFALO          N/A     43  38  82 W9        29.93F
FAITH            N/A     42  37  82 S7        30.00S
MOBRIDGE       CLOUDY    29  27  92 SE3       29.97R
$$

SDZ012>016-024>037-041>051-057-063-072>074-230800-
SOUTHWEST AND SOUTH CENTRAL SOUTH DAKOTA

CITY           SKY/WX    TMP DP  RH WIND       PRES   REMARKS
RAPID CTY ARPT CLEAR     42  35  76 NW9       30.06F
PIERRE         CLEAR     38  35  89 N10       29.99S
CUSTER         CLEAR     47  34  60 W10       30.14F
ELLSWORTH AFB  CLEAR     42  36  81 W8        30.04F
PHILIP         CLEAR     41  37  86 W7        30.02F
PINE RIDGE     CLEAR     42  36  79 SW6       30.10F
SPEARFISH      FAIR      54  37  54 W9        30.08F
WINNER         FAIR      47  38  71 SW3       30.02F
$$

SDZ004>011-016>023-039-040-230800-
NORTHEAST SOUTH DAKOTA

CITY           SKY/WX    TMP DP  RH WIND       PRES   REMARKS
ABERDEEN       CLOUDY    24  22  91 N7        29.99S WCI  16
WATERTOWN      CLOUDY    29  24  82 NW10      29.92S WCI  20
BROOKINGS      CLOUDY    24  19  81 CALM      29.94R
SISSETON         N/A     29  22  75 NW13      29.94R WCI  19
$$

SDZ017-020-022-023-036>040-048>070-230800-
SOUTHEAST SOUTH DAKOTA

CITY           SKY/WX    TMP DP  RH WIND       PRES   REMARKS
SIOUX FALLS    CLOUDY    36  29  75 W8        29.94S
HURON          CLOUDY    28  25  88 NW8       29.99R WCI  20
CHAMBERLAIN    CLEAR     38  35  87 CALM      30.01R
MITCHELL       CLEAR     38  31  76 W7        30.00R
YANKTON        CLEAR     44  34  67 NW12      29.97R
$$

ABBREVIATIONS USED IN REMARKS
   TC - TEMPERATURE IN CELSIUS
  WCI - WIND CHILL INDEX
   HX - HEAT INDEX
  VSB - VISIBILITY





USA.gov is the U.S. government's official web portal to all federal, state and local government web resources and services.